TimeCST,TemperatureF,Dew PointF,Humidity,Sea Level PressureIn,VisibilityMPH,Wind Direction,Wind SpeedMPH,Gust SpeedMPH,PrecipitationIn,Events,Conditions,WindDirDegrees,DateUTC
12:15 AM,19.4,19.4,100,30.13,10.0,East,10.4,16.1,N/A,,Overcast,100,2013-02-22 06:15:00
1:15 AM,19.4,17.6,93,30.11,7.0,ESE,9.2,-,N/A,,Overcast,110,2013-02-22 07:15:00
1:35 AM,19.4,17.6,93,30.11,10.0,East,5.8,-,N/A,,Overcast,100,2013-02-22 07:35:00
1:55 AM,19.4,17.6,93,30.10,10.0,East,8.1,-,N/A,,Overcast,90,2013-02-22 07:55:00
2:15 AM,19.4,17.6,93,30.10,10.0,ESE,5.8,-,N/A,,Overcast,120,2013-02-22 08:15:00
2:35 AM,19.4,17.6,93,30.09,10.0,East,8.1,-,N/A,,Overcast,100,2013-02-22 08:35:00
2:55 AM,19.4,17.6,93,30.08,10.0,East,5.8,-,N/A,,Overcast,100,2013-02-22 08:55:00
3:15 AM,19.4,17.6,93,30.07,10.0,East,8.1,-,N/A,,Overcast,100,2013-02-22 09:15:00
3:35 AM,19.4,17.6,93,30.05,10.0,East,5.8,-,N/A,,Overcast,90,2013-02-22 09:35:00
3:55 AM,19.4,17.6,93,30.03,10.0,ESE,11.5,-,N/A,,Overcast,110,2013-02-22 09:55:00
4:15 AM,19.4,17.6,93,30.02,10.0,East,10.4,-,N/A,,Overcast,100,2013-02-22 10:15:00
4:35 AM,19.4,17.6,93,30.01,10.0,East,6.9,17.3,N/A,,Overcast,90,2013-02-22 10:35:00
4:55 AM,19.4,17.6,93,30.00,10.0,East,9.2,-,N/A,,Overcast,90,2013-02-22 10:55:00
5:15 AM,19.4,17.6,93,30.00,10.0,East,9.2,-,N/A,,Overcast,100,2013-02-22 11:15:00
5:35 AM,19.4,17.6,93,30.00,10.0,East,5.8,-,N/A,,Overcast,100,2013-02-22 11:35:00
6:15 AM,21.2,19.4,93,29.97,4.0,East,8.1,-,N/A,Snow,Light Snow,90,2013-02-22 12:15:00
6:35 AM,21.2,19.4,93,29.96,2.5,East,6.9,-,N/A,Snow,Light Snow,80,2013-02-22 12:35:00
6:55 AM,21.2,19.4,93,29.95,1.2,ENE,6.9,-,N/A,Snow,Light Snow,70,2013-02-22 12:55:00
7:15 AM,21.2,19.4,93,29.94,2.5,ENE,6.9,-,N/A,Snow,Light Snow,70,2013-02-22 13:15:00
7:35 AM,21.2,19.4,93,29.94,10.0,East,9.2,-,N/A,,Overcast,80,2013-02-22 13:35:00
7:55 AM,21.2,19.4,93,29.93,10.0,East,8.1,17.3,N/A,,Overcast,80,2013-02-22 13:55:00
8:15 AM,21.2,19.4,93,29.92,0.8,East,8.1,17.3,N/A,Snow,Light Snow,80,2013-02-22 14:15:00
8:35 AM,21.2,19.4,93,29.92,1.0,East,4.6,-,N/A,Snow,Light Snow,80,2013-02-22 14:35:00
8:55 AM,21.2,19.4,93,29.92,0.8,East,8.1,-,N/A,Snow,Light Snow,80,2013-02-22 14:55:00
9:15 AM,23.0,19.4,86,29.91,0.8,ENE,9.2,-,N/A,Snow,Light Snow,70,2013-02-22 15:15:00
9:35 AM,23.0,19.4,86,29.91,0.8,ENE,8.1,-,N/A,Snow,Light Snow,70,2013-02-22 15:35:00
9:55 AM,23.0,19.4,86,29.90,1.2,ENE,4.6,-,N/A,Snow,Light Snow,60,2013-02-22 15:55:00
10:15 AM,23.0,19.4,86,29.90,1.8,East,10.4,-,N/A,Snow,Light Snow,90,2013-02-22 16:15:00
10:35 AM,24.8,19.4,80,29.89,2.0,East,8.1,16.1,N/A,Snow,Light Snow,80,2013-02-22 16:35:00
10:55 AM,24.8,19.4,80,29.89,4.0,ESE,9.2,-,N/A,Snow,Light Snow,110,2013-02-22 16:55:00
11:15 AM,24.8,19.4,80,29.89,10.0,ESE,9.2,-,N/A,,Overcast,110,2013-02-22 17:15:00
11:35 AM,24.8,21.2,86,29.89,2.5,East,6.9,-,N/A,Snow,Light Snow,80,2013-02-22 17:35:00
11:55 AM,24.8,21.2,86,29.87,1.8,ENE,8.1,-,N/A,Snow,Light Snow,70,2013-02-22 17:55:00
12:15 PM,24.8,21.2,86,29.87,1.2,East,8.1,-,N/A,Snow,Light Snow,80,2013-02-22 18:15:00
12:35 PM,24.8,21.2,86,29.86,1.0,East,9.2,-,N/A,Snow,Light Snow,90,2013-02-22 18:35:00
12:55 PM,24.8,21.2,86,29.85,1.5,East,8.1,-,N/A,Snow,Light Snow,80,2013-02-22 18:55:00
1:15 PM,24.8,21.2,86,29.84,1.5,East,5.8,-,N/A,Snow,Light Snow,80,2013-02-22 19:15:00
1:35 PM,24.8,21.2,86,29.84,1.8,ENE,5.8,-,N/A,Snow,Light Snow,70,2013-02-22 19:35:00
1:55 PM,24.8,21.2,86,29.83,1.5,East,5.8,-,N/A,Snow,Light Snow,80,2013-02-22 19:55:00
2:15 PM,24.8,21.2,86,29.82,1.0,ENE,6.9,-,N/A,Snow,Light Snow,70,2013-02-22 20:15:00
2:35 PM,24.8,21.2,86,29.82,1.2,ENE,5.8,-,N/A,Snow,Light Snow,60,2013-02-22 20:35:00
2:55 PM,24.8,21.2,86,29.82,0.8,ENE,9.2,-,N/A,Snow,Light Snow,70,2013-02-22 20:55:00
3:15 PM,24.8,21.2,86,29.81,1.0,ENE,8.1,-,N/A,Snow,Light Snow,70,2013-02-22 21:15:00
3:35 PM,24.8,21.2,86,29.81,1.0,ENE,3.5,-,N/A,Snow,Light Snow,70,2013-02-22 21:35:00
3:55 PM,24.8,21.2,86,29.80,1.0,East,4.6,-,N/A,Snow,Light Snow,80,2013-02-22 21:55:00
4:15 PM,24.8,21.2,86,29.80,1.2,East,4.6,-,N/A,Snow,Light Snow,80,2013-02-22 22:15:00
4:35 PM,24.8,21.2,86,29.80,1.0,East,3.5,-,N/A,Snow,Light Snow,80,2013-02-22 22:35:00
4:55 PM,24.8,21.2,86,29.80,1.2,ENE,3.5,-,N/A,Snow,Light Snow,70,2013-02-22 22:55:00
5:15 PM,24.8,21.2,86,29.80,1.5,East,5.8,-,N/A,Snow,Light Snow,80,2013-02-22 23:15:00
5:35 PM,24.8,21.2,86,29.80,2.0,East,4.6,-,N/A,Snow,Light Snow,90,2013-02-22 23:35:00
5:55 PM,23.0,21.2,93,29.80,3.0,Calm,Calm,-,N/A,Snow,Light Snow,0,2013-02-22 23:55:00
6:15 PM,23.0,21.2,93,29.80,3.0,Calm,Calm,-,N/A,Snow,Light Snow,0,2013-02-23 00:15:00
6:35 PM,23.0,21.2,93,29.80,3.0,Calm,Calm,-,N/A,Snow,Light Snow,0,2013-02-23 00:35:00
6:55 PM,23.0,21.2,93,29.79,2.0,East,3.5,-,N/A,Snow,Light Snow,90,2013-02-23 00:55:00
7:15 PM,23.0,21.2,93,29.79,2.0,Calm,Calm,-,N/A,Snow,Light Snow,0,2013-02-23 01:15:00
7:35 PM,23.0,21.2,93,29.79,2.0,Calm,Calm,-,N/A,Snow,Light Snow,0,2013-02-23 01:35:00
7:55 PM,21.2,19.4,93,29.79,2.0,Calm,Calm,-,N/A,Snow,Light Snow,0,2013-02-23 01:55:00
8:15 PM,21.2,19.4,93,29.79,4.0,Calm,Calm,-,N/A,Snow,Light Snow,0,2013-02-23 02:15:00
8:35 PM,19.4,17.6,93,29.78,10.0,Calm,Calm,-,N/A,Snow,Light Snow,0,2013-02-23 02:35:00
8:55 PM,19.4,17.6,93,29.77,10.0,Calm,Calm,-,N/A,Snow,Light Snow,0,2013-02-23 02:55:00
9:15 PM,19.4,17.6,93,29.77,7.0,Calm,Calm,-,N/A,Snow,Light Snow,0,2013-02-23 03:15:00
9:35 PM,19.4,17.6,93,29.76,7.0,Calm,Calm,-,N/A,,Overcast,0,2013-02-23 03:35:00
9:55 PM,19.4,19.4,100,29.76,10.0,Calm,Calm,-,N/A,,Overcast,0,2013-02-23 03:55:00
10:15 PM,21.2,19.4,93,29.75,10.0,Calm,Calm,-,N/A,,Overcast,0,2013-02-23 04:15:00
10:35 PM,21.2,19.4,93,29.75,10.0,Calm,Calm,-,N/A,Snow,Light Snow,0,2013-02-23 04:35:00
10:55 PM,19.4,17.6,93,29.75,4.0,Calm,Calm,-,N/A,Snow,Light Snow,0,2013-02-23 04:55:00
11:15 PM,19.4,17.6,93,29.75,1.2,Calm,Calm,-,N/A,Snow,Light Snow,0,2013-02-23 05:15:00
11:55 PM,19.4,17.6,93,29.74,4.0,Calm,Calm,-,N/A,Snow,Light Snow,0,2013-02-23 05:55:00